Location: Espinassolles
(45.2000°N, 2.5000°E)
Time: 23:26:16
(UTC+00:00)

Daily predictions for brighter satellites

Satellite Brightness Start Highest point End
(mag) Time Altitude Azimuth Time Altitude Azimuth Time Altitude Azimuth
Cosmos 2082 3.8 17:41:36 10° NNW 17:47:22 90° WSW 17:53:07 10° SSE
Okean 2 3.4 17:46:07 10° N 17:50:18 89° E 17:54:26 10° S
Cosmos 1733 3.1 17:50:30 10° S 17:54:13 68° E 17:57:56 10° NNE
SL-14 R/B 3.5 17:50:32 10° N 17:54:24 48° ENE 17:58:17 10° SSE
MINOTAUR 4 R/B 4.0 17:56:56 10° NNE 18:00:26 87° WNW 18:03:53 10° SSW
Cosmos 1766 3.9 17:57:05 10° SSE 18:00:37 34° E 18:04:12 10° NNE
Meteor 2-10 4.2 17:56:30 10° S 18:02:03 63° E 18:07:28 10° NNE
Cosmos 540 Rocket 4.1 17:57:02 10° NNW 18:02:06 63° WSW 18:07:07 10° S
ARGOS 4.5 17:57:31 10° S 18:02:38 46° W 18:07:48 10° NNW
Cosmos 1674 Rocket 3.7 17:59:20 10° N 18:03:39 52° ENE 18:07:59 10° SSE
YAOGAN 1 3.1 18:01:52 10° SE 18:05:52 39° ENE 18:09:54 10° N
Cosmos 968 Rocket 4.2 18:02:28 10° SSE 18:07:05 32° E 18:11:41 10° NE
Okean O Rocket 2.2 18:05:47 10° SE 18:09:44 35° ENE 18:13:45 10° N
SAR-Lupe-3 4.5 18:08:11 10° SSE 18:11:44 75° ENE 18:15:19 10° N
Lacrosse 4 Rocket 2.9 18:09:27 10° SE 18:11:52 15° ESE 18:13:55 11° ENE
Nadezhda 4 Rocket 4.2 18:08:23 10° SSE 18:14:28 52° E 18:20:33 10° NNE
SKYMED 2 3.8 18:10:27 10° N 18:14:48 77° WNW 18:19:08 10° SSW
Meteor 2-5 Rocket 4.4 18:10:54 10° N 18:15:52 33° ENE 18:20:48 10° SE
PSLV R/B 3.8 18:18:19 10° S 18:21:59 79° WSW 18:25:40 10° NNW
Cosmos 2285 Rocket 4.1 18:16:00 10° NNW 18:22:18 60° ENE 18:28:36 10° SE
Cosmos 1726 2.0 18:19:05 10° S 18:22:43 84° E 18:26:24 10° N
Cosmos 2322 Rocket 3.0 18:18:07 10° SSE 18:22:53 28° ESE 18:27:41 10° NE
USA 186 3.7 18:22:41 15° ENE 18:22:56 15° ENE 18:24:55 10° NNE
Cosmos 1470 3.6 18:24:11 10° SSE 18:27:29 27° E 18:30:46 10° NNE
CZ-4B R/B 3.1 18:22:48 10° SSE 18:28:10 77° ENE 18:33:41 10° NNW
Cosmos 1980 Rocket 3.0 18:23:19 10° SW 18:28:49 53° WNW 18:34:20 10° NNE
Cosmos 841 Rocket 4.2 18:23:49 10° NNW 18:28:53 57° WSW 18:33:54 10° S
Cosmos 1378 Rocket 3.6 18:25:50 10° N 18:30:13 83° W 18:34:34 10° S
Cosmos 1975 Rocket 4.1 18:27:38 10° NNE 18:31:18 25° ENE 18:33:08 19° ESE
Timation 2 Rocket 4.3 18:25:37 10° NNW 18:32:00 72° WSW 18:38:06 10° SSE
ARGOS Delta rocket 3.9 18:26:53 10° NNE 18:32:10 83° E 18:37:06 10° S
Cosmos 2292 Rocket 3.8 18:32:29 10° S 18:37:34 51° E 18:41:29 10° NNE
USA 215 3.9 18:38:29 10° NE 18:44:50 55° NNW 18:51:10 10° WSW
COBE Rocket 4.1 18:41:35 10° S 18:46:25 71° W 18:51:10 10° NNW
Cosmos 1844 Rocket 3.2 18:45:05 10° NNW 18:50:24 39° NE 18:52:59 26° ESE
Cosmos 2278 4.2 18:46:34 10° SW 18:52:12 62° WNW 18:57:51 10° NNE
SL-16 R/B 2.1 18:47:20 10° SSW 18:52:56 68° ESE 18:58:35 10° NNE
Cosmos 1570 Rocket 3.9 18:50:34 10° NNW 18:55:51 86° ENE 19:00:57 11° SSE
Cosmos 1092 Rocket 4.0 18:49:45 10° S 18:55:57 61° E 19:02:06 10° NNE
Landsat 5 4.0 18:52:23 10° NNE 18:56:39 40° E 19:00:48 10° SSE
Resurs 01 Rocket 3.5 19:01:19 15° NE 19:01:19 15° NE 19:02:57 10° NNE
SJ-6B 3.0 19:02:07 42° ENE 19:02:16 42° ENE 19:05:52 10° N
HJ-1C 4.4 19:00:37 10° S 19:03:34 42° W 19:06:34 10° NNW
Cosmos 2278 Rocket 4.3 19:03:33 10° NNE 19:04:44 11° NE 19:05:41 10° NE
Cosmos 1437 Rocket 2.9 19:01:22 10° SSW 19:05:05 69° WNW 19:08:50 10° N
H-2A R/B 4.3 19:07:12 15° NNE 19:07:12 15° NNE 19:08:19 10° NNE
Cosmos 2263 Rocket 3.7 19:04:18 10° NW 19:09:27 36° WSW 19:14:34 10° S
Meteor 1-24 Rocket 3.5 19:06:01 10° N 19:11:21 81° E 19:16:12 13° SSE
Resurs 1-3 4.1 19:11:26 39° ENE 19:11:26 39° ENE 19:15:30 10° N
SL-4 R/B 2.9 19:11:47 10° WNW 19:16:08 50° SW 19:17:51 33° SSE
Feng Yun 1-1 Rocket 4.4 19:10:42 10° S 19:16:10 70° WSW 19:21:34 10° NNW
Cosmos 2084 Rocket 3.0 19:15:40 10° NW 19:19:32 81° NE 19:19:51 73° ESE
USA 267 4.0 19:14:27 14° SSE 19:19:55 49° SW 19:26:15 10° WNW
Okean-O 2.6 19:20:29 56° ESE 19:21:03 61° ENE 19:25:25 10° N
Cosmos 1486 Rocket 4.0 19:17:12 10° S 19:22:23 58° ESE 19:27:38 10° NNE
CZ-4 R/B 2.6 19:18:24 10° S 19:22:23 44° W 19:26:25 10° NNW
ISS -1.0 19:21:20 10° WSW 19:22:59 13° SW 19:24:25 11° SSW
OBJECT-B 2.9 19:24:56 16° NNW 19:24:56 16° NNW 19:25:35 10° NNW
Cosmos 2208 Rocket 4.3 19:19:08 10° NNW 19:24:30 71° WSW 19:28:16 20° S
IGS 5A 3.3 19:24:37 69° ESE 19:24:56 74° ENE 19:29:04 10° N
Cosmos 1844 3.7 19:19:31 10° NNW 19:25:02 59° ENE 19:26:13 48° ESE
DNEPR-1 R/B 3.7 19:21:57 10° SSW 19:26:32 78° ESE 19:30:36 18° NE
Meteor 1-22 Rocket 4.4 19:22:02 10° SSW 19:27:25 72° WNW 19:33:05 10° N
Cosmos 2333 Rocket 4.3 19:24:01 10° S 19:36:34 - NE 19:24:21 12° S
Cosmos 1300 Rocket 3.5 19:30:15 67° NE 19:30:15 67° NE 19:34:13 10° NNE
CSL-04 Debris 4.1 19:28:02 26° SSE 19:31:10 87° W 19:36:36 10° NNW
Cosmos 2360 Rocket 2.0 19:31:51 10° SSW 19:37:28 73° ESE 19:43:06 10° NNE
Cosmos 1782 Rocket 4.3 19:34:03 10° SSW 19:38:17 52° WNW 19:42:34 10° N
USA 81 4.2 19:34:42 10° N 19:39:58 73° W 19:43:22 22° S
Cosmos 1025 Rocket 3.4 19:39:44 10° NNW 19:44:00 61° W 19:44:50 50° SW
Okean O Rocket 3.9 19:42:39 10° SSW 19:46:09 24° W 19:49:43 10° NW
Lacrosse 4 Rocket 2.0 19:45:59 10° SW 19:49:59 54° NW 19:50:18 53° NW
Cosmos 1417 Rocket 4.4 19:44:56 10° N 19:51:01 62° ENE 19:51:03 62° E
Cosmos 2026 Rocket 4.4 19:45:42 10° SSW 19:51:40 59° WNW 19:57:40 10° N
USA 186 3.9 19:55:51 28° WNW 19:55:51 28° WNW 19:58:01 10° NNW
CSL-04 Rocket 4.1 19:55:06 36° SSW 19:57:09 60° WSW 20:02:31 10° NNW
ATLAS 2AS CENTAUR R/B 4.3 19:54:13 10° NNW 19:59:31 21° NNE 20:01:35 18° NE
MOS 1 4.5 20:01:33 57° NNE 20:01:33 57° NNE 20:06:22 10° N
Landsat 7 4.1 20:04:06 63° WNW 20:04:06 63° WNW 20:08:22 10° NNW
Cosmos 1553 Rocket 4.0 19:58:27 10° N 20:04:50 79° W 20:06:33 51° S
SPOT 1/Viking Rocket 4.2 20:07:54 45° N 20:07:54 45° N 20:11:30 10° N
Cosmos 2322 Rocket 3.1 20:01:10 10° SW 20:06:39 48° WNW 20:12:12 10° NNE
NOSS 3-4 (A) 4.1 20:05:16 10° NNW 20:11:54 49° NE 20:12:04 49° NE
NOSS 3-4 (C) 4.2 20:05:23 10° NNW 20:12:00 49° NE 20:12:10 49° NE
Ariane Rocket 4.5 20:16:26 27° N 20:16:26 27° N 20:18:55 10° N
NOSS 3-3 (A) 3.9 20:14:52 10° SW 20:20:02 72° W 20:20:02 72° W
NOSS 3-3 (C) 3.9 20:14:57 10° SW 20:19:58 69° W 20:19:58 69° W
Aureole 1 Rocket 4.1 20:17:01 10° SSW 20:24:32 77° WNW 20:30:27 10° NNE
USA 281 4.3 20:27:40 30° NNE 20:27:40 30° NNE 20:32:04 10° N
Cosmos 1844 Rocket 3.9 20:29:06 10° NW 20:34:13 35° WSW 20:34:40 35° WSW
Resurs 01 Rocket 3.8 20:38:53 23° NNW 20:38:53 23° NNW 20:40:35 10° NNW
SL-16 R/B 4.4 20:33:07 10° W 20:37:35 23° NW 20:42:03 10° N
Cosmos 1943 Rocket 4.5 20:37:51 10° N 20:38:59 13° NNE 20:38:59 13° NNE
Cosmos 2278 Rocket 3.9 20:44:55 10° NNW 20:47:32 26° N 20:47:32 26° N
Cosmos 2360 Rocket 4.3 21:17:45 10° W 21:22:03 22° NW 21:26:22 10° N
ATLAS 2AS CENTAUR R/B 4.2 21:45:20 10° NNW 21:49:00 30° NNW 21:49:00 30° NNW
